GW2364 Weather Reports


Display with metric or nautical units.
time (UTC)temp
F
wind
direction
speed
MPH
gust
MPH
rain 1hr
in
rain 24hr
in
rain mn
in
humidity
%
barometer
mb
20260904160006 81 232 2.0 5.0 0.00 0.00 0.00 85 1012.8
20260904154504 80 232 1.0 7.0 0.00 0.00 0.00 86 1012.7
20260904153010 80 214 2.0 8.0 0.00 0.00 0.00 88 1012.7
20260904151504 79 229 1.0 4.0 0.00 0.00 0.00 89 1012.6
20260904150006 79 208 2.0 7.0 0.00 0.00 0.00 91 1012.6
20260904144505 79 240 2.0 5.0 0.00 0.00 0.00 92 1012.6
20260904143004 79 240 2.0 5.0 0.00 0.00 0.00 90 1012.6
20260904141507 80 244 1.0 3.0 0.00 0.00 0.00 88 1012.7
20260904140014 79 244 1.0 4.0 0.00 0.00 0.00 89 1012.7
20260904134504 79 94 0.0 2.0 0.00 0.00 0.00 90 1012.6
20260904133004 79 94 0.0 2.0 0.00 0.00 0.00 91 1012.5
20260904131503 79 94 0.0 1.0 0.00 0.00 0.00 90 1012.5
20260904130006 79 94 0.0 2.0 0.00 0.00 0.00 90 1012.4
20260904124509 78 89 0.0 4.0 0.00 0.00 0.00 90 1012.3
20260904123004 79 105 1.0 5.0 0.00 0.00 0.00 90 1012.1
20260904121503 79 109 2.0 5.0 0.00 0.00 0.00 89 1011.8
20260904120005 79 109 2.0 5.0 0.00 0.00 0.00 89 1011.3
20260904114505 79 109 3.0 8.0 0.00 0.00 0.00 89 1011.3
20260904113005 79 67 1.0 6.0 0.00 0.00 0.00 89 1011.2
20260904111503 79 107 0.0 4.0 0.00 0.00 0.00 89 1011.1
20260904110006 79 119 1.0 4.0 0.00 0.00 0.00 89 1011.2
20260904104504 79 105 0.0 2.0 0.00 0.00 0.00 88 1011.0
20260904103013 79 78 0.0 4.0 0.00 0.00 0.00 88 1010.9
20260904101505 79 109 0.0 2.0 0.00 0.00 0.00 88 1010.8
20260904100013 79 90 0.0 3.0 0.00 0.00 0.00 88 1010.8
20260904094503 79 222 0.0 2.0 0.00 0.00 0.00 87 1010.7
20260904093002 79 222 0.0 2.0 0.00 0.00 0.00 87 1010.6
20260904091503 79 165 0.0 7.0 0.00 0.00 0.00 87 1010.7
20260904090005 79 218 0.0 6.0 0.00 0.00 0.00 86 1010.6
20260904084503 79 232 1.0 5.0 0.00 0.00 0.00 86 1010.7
20260904083007 79 265 1.0 4.0 0.00 0.00 0.00 86 1010.7
20260904081505 79 316 0.0 3.0 0.00 0.00 0.00 86 1010.8
20260904080006 79 275 1.0 5.0 0.00 0.00 0.00 86 1010.7
20260904074503 79 303 1.0 5.0 0.00 0.00 0.00 86 1010.7
20260904073003 79 79 1.0 9.0 0.00 0.00 0.00 85 1010.8
20260904071503 79 197 0.0 4.0 0.00 0.00 0.00 85 1010.9
20260904070014 80 238 1.0 4.0 0.00 0.00 0.00 85 1011.0
20260904064510 80 103 1.0 6.0 0.00 0.00 0.00 84 1011.1
20260904063010 80 75 2.0 4.0 0.00 0.00 0.00 84 1011.0
20260904061503 80 217 1.0 8.0 0.00 0.00 0.00 83 1011.0
20260904060008 80 221 2.0 5.0 0.00 0.00 0.00 82 1011.1
20260904054506 80 88 1.0 6.0 0.00 0.00 0.00 82 1011.0
20260904053013 80 107 2.0 8.0 0.00 0.00 0.00 82 1010.8
20260904051506 80 102 1.0 7.0 0.00 0.00 0.00 82 1010.8
20260904050010 80 111 1.0 7.0 0.00 0.00 0.00 81 1010.9
20260904044506 80 100 3.0 7.0 0.00 0.00 0.00 81 1010.9
20260904043005 80 92 1.0 7.0 0.00 0.00 0.00 80 1010.8
20260904041505 80 92 3.0 9.0 0.00 0.00 0.00 80 1010.7
20260904040007 80 90 2.0 6.0 0.00 0.00 0.00 80 1010.6
20260904034505 80 103 1.0 9.0 0.00 0.00 0.00 79 1010.6
20260904033005 81 108 2.0 9.0 0.00 0.00 0.00 79 1010.6
20260904031505 81 60 3.0 9.0 0.00 0.00 0.00 78 1010.4
20260904030007 81 69 2.0 7.0 0.00 0.00 0.00 76 1010.3
20260904024504 82 101 2.0 8.0 0.00 0.00 0.00 75 1010.2
20260904023005 82 108 4.0 13.0 0.00 0.00 0.00 74 1009.9
20260904021505 83 86 3.0 9.0 0.00 0.00 0.00 72 1009.9
20260904020007 83 111 1.0 7.0 0.00 0.00 0.00 71 1009.7
20260904014505 84 96 2.0 7.0 0.00 0.00 0.00 70 1009.5
20260904013005 84 96 2.0 7.0 0.00 0.00 0.00 69 1009.1
20260904011511 85 63 3.0 9.0 0.00 0.00 0.00 68 1009.0
20260904010010 85 150 3.0 9.0 0.00 0.00 0.00 67 1009.0
20260904004505 86 67 3.0 9.0 0.00 0.00 0.00 66 1009.1
20260904003007 86 35 3.0 11.0 0.00 0.00 0.00 66 1009.1
20260904001504 87 94 4.0 14.0 0.00 0.00 0.00 65 1009.0
20260904000009 88 64 5.0 13.0 0.00 0.00 0.00 63 1009.0
20260903234505 89 52 3.0 9.0 0.00 0.00 0.00 64 1008.8
20260903233004 89 75 4.0 10.0 0.00 0.00 0.00 64 1008.7
20260903231504 91 48 5.0 12.0 0.00 0.00 0.00 62 1008.5
20260903230010 93 70 5.0 14.0 0.00 0.00 0.00 55 1008.4
20260903224510 95 88 6.0 13.0 0.00 0.00 0.00 50 1008.0
20260903223004 94 123 4.0 10.0 0.00 0.00 0.00 51 1008.0
20260903221505 95 146 4.0 11.0 0.00 0.00 0.00 51 1007.9
20260903220018 95 57 6.0 16.0 0.00 0.00 0.00 50 1007.8
20260903214507 98 81 4.0 10.0 0.00 0.00 0.00 46 1007.9
20260903213004 98 48 2.0 9.0 0.00 0.00 0.00 47 1008.0
20260903211504 98 98 3.0 10.0 0.00 0.00 0.00 47 1008.1
20260903210006 100 90 4.0 11.0 0.00 0.00 0.00 45 1008.2
20260903204510 99 70 4.0 11.0 0.00 0.00 0.00 45 1008.5
20260903203004 101 131 5.0 10.0 0.00 0.00 0.00 43 1008.7
20260903201506 101 107 5.0 11.0 0.00 0.00 0.00 44 1008.8
20260903200006 100 68 3.0 9.0 0.00 0.00 0.00 45 1008.8
20260903194505 99 123 2.0 9.0 0.00 0.00 0.00 46 1009.1
20260903193004 99 41 2.0 10.0 0.00 0.00 0.00 46 1009.3
20260903191507 99 38 2.0 10.0 0.00 0.00 0.00 46 1009.5
20260903190007 98 78 4.0 10.0 0.00 0.00 0.00 47 1009.8
20260903184504 98 61 4.0 10.0 0.00 0.00 0.00 48 1010.0
20260903183004 97 236 1.0 5.0 0.00 0.00 0.00 46 1010.3
20260903181504 97 181 3.0 10.0 0.00 0.00 0.00 47 1010.6
20260903180007 95 271 3.0 10.0 0.00 0.00 0.00 50 1010.6
20260903174504 96 191 4.0 10.0 0.00 0.00 0.00 48 1010.7
20260903173015 96 111 2.0 8.0 0.00 0.00 0.00 51 1010.9
20260903171507 95 209 2.0 10.0 0.00 0.00 0.00 55 1011.0
20260903170006 92 263 1.0 13.0 0.00 0.00 0.00 59 1011.2
20260903164504 92 196 3.0 14.0 0.00 0.00 0.00 58 1011.1
20260903163005 92 146 3.0 8.0 0.00 0.00 0.00 58 1011.3
20260903161504 92 242 2.0 9.0 0.00 0.00 0.00 61 1011.3